• In India
  • List of Countries
  • For 7 days
  • Water Temperature
  • Satellite Maps
  • Weather Map
  • Weather Widgets
  • user-avatar
    Login

    Hourly Weather Cumbal

    Today, 24 May, Thursday

    Time Temperature Precipitation Wind Pressure Humidity
    00:00 +8°C° 0.2 mm 1 mps 522 mmHg 87%
    01:00 +7°C° 0 mm 2 mps 521 mmHg 86%
    02:00 +8°C° 0.1 mm 1 mps 521 mmHg 87%
    03:00 +8°C° 0.1 mm 1 mps 521 mmHg 87%
    04:00 +7°C° 0.1 mm 1 mps 521 mmHg 87%
    05:00 +8°C° 0.1 mm 1 mps 521 mmHg 86%
    06:00 +8°C° 0.1 mm 1 mps 522 mmHg 85%
    07:00 +8°C° 0 mm 2 mps 522 mmHg 81%
    08:00 +9°C° 0.1 mm 2 mps 523 mmHg 78%
    09:00 +10°C° 0.1 mm 2 mps 524 mmHg 75%
    10:00 +12°C° 0.1 mm 2 mps 525 mmHg 71%
    11:00 +12°C° 0.5 mm 2 mps 524 mmHg 72%
    12:00 +12°C° 0.5 mm 2 mps 524 mmHg 73%
    13:00 +12°C° 0.5 mm 2 mps 524 mmHg 73%
    14:00 +12°C° 0.3 mm 2 mps 523 mmHg 74%
    15:00 +10°C° 0.3 mm 2 mps 523 mmHg 76%
    16:00 +10°C° 0.3 mm 2 mps 522 mmHg 77%
    17:00 +9°C° 0.2 mm 2 mps 522 mmHg 81%
    18:00 +8°C° 0.2 mm 2 mps 522 mmHg 85%
    19:00 +9°C° 0.2 mm 1 mps 521 mmHg 88%
    20:00 +7°C° 0 mm 2 mps 521 mmHg 88%
    21:00 +7°C° 0 mm 2 mps 521 mmHg 88%
    22:00 +6°C° 0 mm 2 mps 521 mmHg 88%
    23:00 +6°C° 0 mm 2 mps 521 mmHg 87%

    Tomorrow, 25 May, Friday

    Time Temperature Precipitation Wind Pressure Humidity
    00:00 +6°C° 0 mm 2 mps 521 mmHg 86%
    01:00 +6°C° 0 mm 2 mps 521 mmHg 85%
    02:00 +6°C° 0 mm 2 mps 520 mmHg 84%
    03:00 +6°C° 0 mm 2 mps 520 mmHg 84%
    04:00 +6°C° 0 mm 2 mps 520 mmHg 83%
    05:00 +7°C° 0 mm 2 mps 521 mmHg 82%
    06:00 +7°C° 0 mm 2 mps 521 mmHg 81%
    07:00 +8°C° 0 mm 2 mps 521 mmHg 80%
    08:00 +9°C° 0 mm 2 mps 522 mmHg 75%
    09:00 +10°C° 0 mm 2 mps 523 mmHg 70%
    10:00 +13°C° 0 mm 2 mps 524 mmHg 66%
    11:00 +13°C° 0.2 mm 2 mps 524 mmHg 66%
    12:00 +13°C° 0.2 mm 2 mps 524 mmHg 66%
    13:00 +14°C° 0.2 mm 2 mps 524 mmHg 65%
    14:00 +13°C° 0.3 mm 2 mps 523 mmHg 68%
    15:00 +13°C° 0.3 mm 2 mps 522 mmHg 70%
    16:00 +12°C° 0.3 mm 2 mps 522 mmHg 72%
    17:00 +10°C° 0.2 mm 2 mps 521 mmHg 78%
    18:00 +9°C° 0.2 mm 1 mps 521 mmHg 84%
    19:00 +8°C° 0.2 mm 1 mps 520 mmHg 90%
    20:00 +8°C° 0.1 mm 1 mps 520 mmHg 88%
    21:00 +6°C° 0.1 mm 2 mps 520 mmHg 87%
    22:00 +6°C° 0.1 mm 2 mps 520 mmHg 86%
    23:00 +6°C° 0 mm 2 mps 520 mmHg 85%

    Day after tomorrow, 26 May, Saturday

    Time Temperature Precipitation Wind Pressure Humidity
    00:00 +7°C° 0 mm 2 mps 520 mmHg 84%
    01:00 +7°C° 0 mm 2 mps 520 mmHg 83%
    02:00 +7°C° 0 mm 2 mps 520 mmHg 84%
    03:00 +6°C° 0 mm 2 mps 520 mmHg 85%
    04:00 +6°C° 0 mm 2 mps 519 mmHg 86%
    05:00 +7°C° 0 mm 2 mps 520 mmHg 85%
    06:00 +7°C° 0 mm 2 mps 520 mmHg 84%
    07:00 +9°C° 0 mm 1 mps 521 mmHg 83%
    08:00 +9°C° 0 mm 2 mps 522 mmHg 79%
    09:00 +10°C° 0 mm 2 mps 523 mmHg 75%
    10:00 +12°C° 0 mm 2 mps 524 mmHg 70%
    11:00 +12°C° 0.4 mm 2 mps 523 mmHg 72%
    12:00 +12°C° 0.4 mm 2 mps 523 mmHg 73%
    13:00 +12°C° 0.4 mm 1 mps 523 mmHg 74%
    14:00 +12°C° 1 mm 1 mps 522 mmHg 76%
    15:00 +11°C° 1 mm 1 mps 522 mmHg 78%
    16:00 +11°C° 1 mm 1 mps 521 mmHg 80%
    17:00 +10°C° 0.4 mm 1 mps 521 mmHg 82%
    18:00 +9°C° 0.4 mm 1 mps 521 mmHg 84%
    19:00 +9°C° 0.4 mm 1 mps 520 mmHg 86%
    20:00 +8°C° 0.1 mm 1 mps 520 mmHg 86%
    21:00 +8°C° 0.1 mm 1 mps 521 mmHg 87%
    22:00 +7°C° 0.1 mm 1 mps 521 mmHg 87%
    23:00 +7°C° 0 mm 1 mps 521 mmHg 87%

    27 May, Sunday

    Time Temperature Precipitation Wind Pressure Humidity
    00:00 +8°C° 0 mm 1 mps 521 mmHg 86%
    01:00 +8°C° 0 mm 1 mps 521 mmHg 86%
    02:00 +8°C° 0 mm 1 mps 520 mmHg 86%
    03:00 +8°C° 0 mm 1 mps 520 mmHg 87%
    04:00 +7°C° 0 mm 1 mps 520 mmHg 88%
    05:00 +8°C° 0.2 mm 1 mps 520 mmHg 87%
    06:00 +8°C° 0.2 mm 1 mps 521 mmHg 86%
    07:00 +8°C° 0.2 mm 1 mps 521 mmHg 86%
    08:00 +9°C° 0.4 mm 1 mps 522 mmHg 82%
    09:00 +10°C° 0.4 mm 1 mps 522 mmHg 79%
    10:00 +10°C° 0.4 mm 2 mps 523 mmHg 76%
    11:00 +10°C° 0.2 mm 2 mps 523 mmHg 75%
    12:00 +12°C° 0.2 mm 2 mps 523 mmHg 75%
    13:00 +12°C° 0.2 mm 2 mps 523 mmHg 74%
    14:00 +12°C° 0.4 mm 2 mps 522 mmHg 76%
    15:00 +11°C° 0.4 mm 1 mps 521 mmHg 78%
    16:00 +11°C° 0.4 mm 1 mps 521 mmHg 81%
    17:00 +10°C° 0.3 mm 1 mps 521 mmHg 84%
    18:00 +9°C° 0.3 mm 1 mps 521 mmHg 87%
    19:00 +8°C° 0.3 mm 1 mps 520 mmHg 90%
    20:00 +8°C° 0.1 mm 1 mps 521 mmHg 90%
    21:00 +8°C° 0.1 mm 1 mps 521 mmHg 89%
    22:00 +8°C° 0.1 mm 1 mps 522 mmHg 89%
    23:00 +8°C° 0 mm 1 mps 521 mmHg 89%

    28 May, Monday

    Time Temperature Precipitation Wind Pressure Humidity
    00:00 +7°C° 0 mm 1 mps 521 mmHg 90%
    01:00 +7°C° 0 mm 1 mps 521 mmHg 90%
    02:00 +7°C° 0 mm 1 mps 520 mmHg 90%
    03:00 +7°C° 0 mm 1 mps 520 mmHg 90%
    04:00 +7°C° 0 mm 1 mps 519 mmHg 90%
    05:00 +7°C° 0 mm 1 mps 520 mmHg 88%
    06:00 +8°C° 0 mm 1 mps 521 mmHg 86%
    07:00 +8°C° 0 mm 1 mps 521 mmHg 83%
    08:00 +9°C° 0 mm 1 mps 522 mmHg 80%
    09:00 +11°C° 0 mm 1 mps 523 mmHg 77%
    10:00 +12°C° 0 mm 1 mps 524 mmHg 74%
    11:00 +12°C° 0.3 mm 1 mps 524 mmHg 75%
    12:00 +11°C° 0.3 mm 1 mps 523 mmHg 76%
    13:00 +11°C° 0.3 mm 1 mps 523 mmHg 77%
    14:00 +11°C° 0.4 mm 1 mps 523 mmHg 79%
    15:00 +11°C° 0.4 mm 1 mps 522 mmHg 80%
    16:00 +11°C° 0.4 mm 1 mps 522 mmHg 81%
    17:00 +10°C° 0.2 mm 1 mps 521 mmHg 85%
    18:00 +9°C° 0.2 mm 1 mps 521 mmHg 88%
    19:00 +8°C° 0.2 mm 1 mps 521 mmHg 92%
    20:00 +7°C° 0.1 mm 0 mps 521 mmHg 91%
    21:00 +7°C° 0.1 mm 0 mps 522 mmHg 91%
    22:00 +7°C° 0.1 mm 0 mps 522 mmHg 90%
    23:00 +7°C° 0.1 mm 0 mps 522 mmHg 90%

    29 May, Tuesday

    Time Temperature Precipitation Wind Pressure Humidity
    00:00 +6°C° 0.1 mm 0 mps 521 mmHg 90%
    01:00 +6°C° 0.1 mm 0 mps 521 mmHg 90%
    02:00 +6°C° 0.2 mm 0 mps 521 mmHg 90%
    03:00 +6°C° 0.2 mm 0 mps 520 mmHg 90%
    04:00 +6°C° 0.2 mm 0 mps 520 mmHg 89%
    05:00 +7°C° 0.4 mm 0 mps 521 mmHg 88%
    06:00 +7°C° 0.4 mm 0 mps 521 mmHg 88%
    07:00 +7°C° 0.4 mm 0 mps 521 mmHg 87%
    08:00 +9°C° 0.3 mm 1 mps 522 mmHg 84%
    09:00 +10°C° 0.3 mm 1 mps 523 mmHg 80%
    10:00 +10°C° 0.3 mm 1 mps 523 mmHg 77%
    11:00 +11°C° 0.3 mm 1 mps 523 mmHg 76%
    12:00 +11°C° 0.3 mm 1 mps 523 mmHg 75%
    13:00 +12°C° 0.3 mm 1 mps 523 mmHg 74%
    14:00 +12°C° 0.8 mm 1 mps 522 mmHg 75%
    15:00 +11°C° 0.8 mm 1 mps 522 mmHg 76%
    16:00 +11°C° 0.8 mm 1 mps 521 mmHg 77%
    17:00 +10°C° 0.6 mm 1 mps 521 mmHg 82%
    18:00 +8°C° 0.6 mm 0 mps 521 mmHg 87%
    19:00 +7°C° 0.6 mm 0 mps 521 mmHg 92%
    20:00 +7°C° 0.2 mm 0 mps 521 mmHg 91%
    21:00 +7°C° 0.2 mm 0 mps 521 mmHg 90%
    22:00 +8°C° 0.2 mm 1 mps 521 mmHg 89%
    23:00 +8°C° 0.5 mm 1 mps 521 mmHg 88%
    Show more